Weather in Verkhniye Kigi

Russia / Republic of Bashkortostan     55°24′27″N   58°36′00″E
temp.,
°C
wind,
m/s
gust,
m/s
humid.,
%
clouds,
%
prec.,
mm/h
press.,
hPa
HPBL,
m
28 september, tue
tue2823:00+3ene7147295 0.0 10201100
02:00+1ene7147929 0.0 1021820
05:00+1ene81374100 0.0 10211031
08:00+2ne7137189 0.0 10211162
11:00+5ene8126579 0.1 10211510
14:00+6ne8115299 0.1 10211797
17:00+6ne7105968 0.1 10221389
20:00+2nne3107573 0.0 1024300
29 september, wed
wed2923:000nne388315 0.0 1025189
02:00−1nne359244 0.0 1025103
05:00−1nne369372 0.0 1026132
08:00−1nne3108843 0.0 1026328
11:00+5ne576162 0.0 1026964
14:00+7ne5551100 0.2 10251415
17:00+6nne565354 0.4 10261288
20:00+2nne33715 0.0 102731
30 september, thu
thu3023:000nne11765 0.0 102810
02:00−1nnw117781 0.0 102810
05:00−1wnw118057 0.0 102810
08:000w11785 0.0 102812
11:00+5wnw2357100 0.0 1027642
14:00+7nw4547100 0.0 10261493
17:00+6nw665686 0.1 10251152
20:00+4wnw3773100 0.0 1026255
1 october, fri
fri123:00+3w3878100 0.1 1025324
02:00+3w5989100 0.0 1025724
05:00+4w5993100 0.4 1024799
08:00+4w5994100 1.3 1025551
11:00+4wnw4796100 1.6 1026571
14:00+5nnw2393100 0.1 1027626
17:00+5nnw239193 0.2 1028362
20:00+4w119398 0.0 102912
2 october, sat
sat223:00+4sw229399 0.0 102949
02:00+4sw2394100 0.0 102997
05:00+3wsw36958 0.1 1029199
08:00+3wsw369595 0.0 1030316
11:00+6wnw458495 0.0 1030588
14:00+10wnw45575 0.0 10291281
17:00+9nw46585 0.0 1029887
20:00+5nw227224 0.0 103010